TimePST,TemperatureF,Dew PointF,Humidity,Sea Level PressureIn,VisibilityMPH,Wind Direction,Wind SpeedMPH,Gust SpeedMPH,PrecipitationIn,Events,Conditions,WindDirDegrees,DateUTC
12:53 AM,45.0,39.9,82,30.18,10.0,SSW,13.8,-,N/A,,Overcast,200,2013-01-08 08:53:00
1:53 AM,45.0,39.9,82,30.18,10.0,SSW,9.2,-,N/A,,Overcast,200,2013-01-08 09:53:00
2:09 AM,44.6,39.2,81,30.15,10.0,South,9.2,-,N/A,,Overcast,190,2013-01-08 10:09:00
2:34 AM,44.6,39.2,81,30.15,10.0,South,11.5,-,N/A,,Overcast,190,2013-01-08 10:34:00
2:53 AM,45.0,39.9,82,30.17,10.0,SSW,10.4,-,N/A,,Overcast,210,2013-01-08 10:53:00
3:17 AM,44.6,39.2,81,30.14,10.0,SSW,6.9,-,N/A,,Overcast,200,2013-01-08 11:17:00
3:53 AM,45.0,39.9,82,30.16,10.0,SSW,8.1,-,N/A,,Mostly Cloudy,200,2013-01-08 11:53:00
4:53 AM,45.0,39.9,82,30.14,10.0,SSW,8.1,-,0.00,Rain,Light Rain,210,2013-01-08 12:53:00
5:07 AM,44.6,39.2,81,30.12,10.0,SSW,13.8,-,0.01,Rain,Light Rain,200,2013-01-08 13:07:00
5:53 AM,43.0,37.9,82,30.13,4.0,ESE,4.6,-,0.09,Rain,Rain,120,2013-01-08 13:53:00
6:11 AM,42.8,37.4,81,30.10,6.0,ESE,4.6,-,0.01,Rain,Light Rain,110,2013-01-08 14:11:00
6:53 AM,43.0,39.0,86,30.09,7.0,East,6.9,-,0.04,Rain,Light Rain,100,2013-01-08 14:53:00
7:04 AM,42.8,39.2,87,30.06,8.0,ESE,5.8,-,0.00,Rain,Light Rain,120,2013-01-08 15:04:00
7:32 AM,42.8,39.2,87,30.05,7.0,ESE,6.9,-,0.01,Rain,Light Rain,110,2013-01-08 15:32:00
7:53 AM,43.0,39.0,86,30.07,4.0,East,5.8,-,0.02,Rain,Light Rain,100,2013-01-08 15:53:00
8:09 AM,42.8,39.2,87,30.04,4.0,East,6.9,-,0.01,Rain,Light Rain,100,2013-01-08 16:09:00
8:53 AM,42.1,37.9,85,30.05,3.0,East,6.9,-,0.04,Rain,Light Rain,80,2013-01-08 16:53:00
9:42 AM,42.8,39.2,87,30.00,2.0,East,8.1,-,0.03,Rain,Light Rain,100,2013-01-08 17:42:00
9:53 AM,42.1,39.0,89,30.03,2.0,ESE,8.1,-,0.03,Rain,Light Rain,110,2013-01-08 17:53:00
10:13 AM,42.8,39.2,87,29.98,1.5,SE,11.5,-,0.01,Rain,Light Rain,130,2013-01-08 18:13:00
10:26 AM,42.8,39.2,87,29.98,0.8,SE,9.2,-,0.01,Rain,Light Rain,140,2013-01-08 18:26:00
10:53 AM,42.1,39.9,92,29.99,0.8,SSE,8.1,-,0.02,Rain,Light Rain,150,2013-01-08 18:53:00
11:33 AM,42.8,39.2,87,29.93,0.8,SSE,12.7,-,0.02,Rain,Light Rain,150,2013-01-08 19:33:00
11:53 AM,43.0,41.0,93,29.96,0.8,SSE,11.5,-,0.04,Rain,Light Rain,160,2013-01-08 19:53:00
11:58 AM,42.8,41.0,93,29.93,0.8,SSE,12.7,-,0.00,Rain,Light Rain,160,2013-01-08 19:58:00
12:53 PM,45.0,42.1,90,29.93,0.8,SSE,11.5,-,0.04,Rain,Light Rain,160,2013-01-08 20:53:00
1:53 PM,48.9,46.0,90,29.89,0.8,South,15.0,-,0.10,Rain,Light Rain,170,2013-01-08 21:53:00
2:19 PM,50.0,46.4,87,29.86,4.0,South,15.0,24.2,0.02,Rain,Light Rain,180,2013-01-08 22:19:00
2:53 PM,51.1,46.9,86,29.88,7.0,South,18.4,-,0.04,Rain,Light Rain,190,2013-01-08 22:53:00
3:53 PM,51.1,46.9,86,29.87,10.0,South,21.9,29.9,0.00,Rain,Light Rain,180,2013-01-08 23:53:00
4:28 PM,51.8,46.4,82,29.82,10.0,South,23.0,32.2,0.00,,Overcast,190,2013-01-09 00:28:00
4:53 PM,52.0,46.0,80,29.84,10.0,South,23.0,33.4,0.00,,Overcast,190,2013-01-09 00:53:00
5:17 PM,51.8,46.4,82,29.82,10.0,South,24.2,38.0,N/A,,Overcast,190,2013-01-09 01:17:00
5:53 PM,52.0,46.0,80,29.82,10.0,SSW,19.6,29.9,N/A,,Overcast,200,2013-01-09 01:53:00
6:45 PM,53.6,44.6,72,29.78,10.0,South,24.2,34.5,N/A,,Overcast,180,2013-01-09 02:45:00
6:53 PM,53.1,45.0,74,29.80,10.0,South,24.2,38.0,N/A,,Overcast,190,2013-01-09 02:53:00
7:53 PM,53.1,45.0,74,29.78,10.0,South,29.9,41.4,N/A,,Overcast,190,2013-01-09 03:53:00
8:53 PM,52.0,45.0,77,29.78,10.0,SSW,24.2,33.4,0.00,Rain,Light Rain,200,2013-01-09 04:53:00
9:53 PM,51.1,45.0,80,29.78,10.0,SSW,17.3,25.3,0.03,Rain,Light Rain,210,2013-01-09 05:53:00
10:53 PM,50.0,46.0,86,29.78,7.0,SW,13.8,-,0.07,Rain,Rain,230,2013-01-09 06:53:00
11:53 PM,50.0,46.0,86,29.77,9.0,SW,16.1,26.5,0.07,Rain,Light Rain,220,2013-01-09 07:53:00